Regional Weather Roundup
Issued by NWS

Home | Current Version | Previous Version | Text Only | Print | Product List | Glossary On
Versions: 1 2 3 4 5 6 7 8 9 10 11 12 13 14 15 16 17 18 19 20 21 22 23 24 25 26 27
000
ASUS43 KDMX 230807
RWRIA

WEATHER ROUNDUP FOR IOWA
NATIONAL WEATHER SERVICE DES MOINES IA
300 AM CDT WED APR 23 2014

NOTE: "FAIR" INDICATES FEW OR NO CLOUDS BELOW 12,000 FEET WITH NO
SIGNIFICANT WEATHER AND/OR OBSTRUCTIONS TO VISIBILITY.

* - THESE STATIONS ARE NOT NWS STATIONS...THUS NOT UNDER NWS
QUALITY CONTROL.  THEY ALSO DO NOT REPORT WEATHER SUCH
AS PRECIPITATION OR FOG.

IAZ001>003-012>014-020>022-031>034-043>046-230900-
   NORTHWEST IOWA

CITY           SKY/WX    TMP DP  RH WIND       PRES   REMARKS
CARROLL *      CLOUDY    52  34  50 SE12      30.01S
CHEROKEE *     CLOUDY    52  36  54 SE14      29.98F
DENISON *      CLOUDY    52  34  50 SE13      29.97F
LE MARS *      CLOUDY    54  36  50 SE13G24   29.93F
ORANGE CITY *  CLOUDY    54  34  47 SE10G17   29.94F
SHELDON *      MOCLDY    52  36  54 SE14      29.95F
SIOUX CITY     CLOUDY    55  34  45 SE15      29.92F
SPENCER        CLOUDY    51  35  54 SE15      30.00S
STORM LAKE *   CLOUDY    50  36  57 SE14      30.00S
$$

IAZ055>058-069>071-079>083-090>094-230900-
   SOUTHWEST IOWA

CITY           SKY/WX    TMP DP  RH WIND       PRES   REMARKS
ATLANTIC *     CLOUDY    54  34  47 SE8G16    30.00S
AUDUBON *      CLOUDY    52  30  43 SE9       30.01F
CLARINDA *     CLOUDY    55  36  47 SE6       30.01S
COUNCIL BLFS * CLOUDY    54  36  50 SE16      29.95F
CRESTON *      CLOUDY    52  34  50 SE12      30.02R
HARLAN  *      CLOUDY    54  34  47 SE15      30.02S
LAMONI         MOCLDY    51  33  50 E7        30.01F
RED OAK *      CLOUDY    54  36  50 E8        29.99F
SHENANDOAH *   CLOUDY    55  36  47 SE10      29.99F
$$

IAZ047>049-059>061-072>074-084-230900-
   CENTRAL IOWA

CITY           SKY/WX    TMP DP  RH WIND       PRES   REMARKS
AMES           CLOUDY    50  33  52 E3        30.04F
ANKENY *       MOCLDY    50  34  53 SE6       30.04S
CHARITON *     CLOUDY    48  36  61 E10       30.02F
DES MOINES     PTCLDY    53  32  44 E10       30.03F
GRINNELL*      MOCLDY    46  32  57 E7        30.06S
KNOXVILLE *    CLOUDY    50  34  53 E7        30.02F
MARSHALLTOWN   MOCLDY    47  33  58 E12       30.04F
NEWTON *       CLEAR     46  32  57 E9        30.05F
PELLA *        MOCLDY    48  34  57 E5        30.05F
PERRY *          N/A     50  32  50 E8        30.03R
$$

IAZ004>006-015-016-023>025-035-036-230900-
   NORTH CENTRAL IOWA

CITY           SKY/WX    TMP DP  RH WIND       PRES   REMARKS
ALGONA *       CLOUDY    50  36  57 E14       30.04S
CLARION *      CLOUDY    48  34  57 SE13      30.04S
ESTHERVILLE    CLOUDY    48  37  65 E14       30.01S
FORT DODGE *   CLOUDY    50  34  53 SE10      30.04R
MASON CITY     CLOUDY    46  30  53 SE13      30.07S
FOREST CITY *  DRIZZLE   45  34  65 E8        30.05S
IOWA FALLS *   MOCLDY    48  32  53 E7        30.06S
$$

IAZ007>011-017>019-026>030-037>042-050>054-066-230900-
   NORTHEAST IOWA

CITY           SKY/WX    TMP DP  RH WIND       PRES   REMARKS
CEDAR RAPIDS   PTCLDY    42  30  62 E9        30.06S
CHARLES CITY * CLOUDY    45  30  57 E10       30.08R
CLINTON *      PTCLDY    34  28  80 E9        30.14R WCI  26
DECORAH *      CLEAR     43  28  56 E10       30.08S
DUBUQUE        CLEAR     39  27  62 E7        30.09S WCI  34
MONTICELLO *   CLEAR     41  30  65 E7        30.08R
OELWEIN *      CLOUDY   N/A N/A N/A E9        30.08S
WATERLOO       CLOUDY    43  32  65 E8        30.06F
$$

IAZ064-065-067-068-078-230900-
   EAST CENTRAL IOWA

CITY           SKY/WX    TMP DP  RH WIND       PRES   REMARKS
DAVENPORT      PTCLDY    39  30  70 SE9       30.10S WCI  33
IOWA CITY      CLEAR     46  29  51 E10G17    30.09R
MT. PLEASANT * PTCLDY    43  30  61 NE3       30.07R
MUSCATINE *    CLEAR     45  32  61 E8G16     30.09R
QUAD CITIES    PTCLDY    38  30  73 E8        30.09S WCI  32
$$

IAZ062-063-075>077-085>089-095>099-230900-
   SOUTHEAST IOWA

CITY           SKY/WX    TMP DP  RH WIND       PRES   REMARKS
BURLINGTON     CLEAR     48  30  49 E13       30.06R
FAIRFIELD *    CLOUDY    46  34  61 E6        30.05F
FORT MADISON * CLEAR     46  30  53 NE3       30.07S
KEOKUK *       PTCLDY    48  32  53 NE7       30.05S
OSKALOOSA *      N/A     48  37  66 E8        30.05F
CENTERVILLE *  PTCLDY    46  34  61 E7        30.04F
OTTUMWA        MOCLDY    49  33  54 E8        30.04F
WASHINGTON *   CLEAR     41  30  65 NE6       30.07R
$$

ABBREVIATIONS USED IN REMARKS
   TC - TEMPERATURES IN CELSIUS
  WCI - WIND CHILL INDEX
   HX - HEAT INDEX
  VSB - VISIBILITY
$$




USA.gov is the U.S. government's official web portal to all federal, state and local government web resources and services.